Location: Unspecified
(0.0000°N, 0.0000°E)
Time: 00:22:19
(UTC+00:00)

deb NNS O-18 - Pass Details

Date: 03 November 2024
Orbit: 1009 x 1291 km, 89.8° (Epoch: 29 November)

Event Time Altitude Azimuth Distance (km) Brightness Sun altitude
Rises 03:16:49 0° 144° (SE) 4,183 ? -35.2°
Reaches altitude 10° 03:20:43 10° 125° (SE) 3,168 ? -34.3°
Maximum altitude 03:25:09 17° 87° (E) 2,604 ? -33.2°
Drops below altitude 10° 03:29:26 10° 49° (NE) 3,040 ? -32.2°
Sets 03:33:01 0° 30° (NNE) 3,943 ? -31.4°
